This is the latest recevied weather packets stored in our database for station/object TONGUE. If no packets are shown the sender has not sent any weather packets the latest 10 day(s).
| Time | Temp. | Humidity | Pressure | Rain* | Wind** | Luminosity | Snow |
|---|---|---|---|---|---|---|---|
| 1787956204 | 18.89° C | 75% | 0 hPa | - | - | - | - |
| 1787955603 | 18.89° C | 75% | 0 hPa | - | - | - | - |
| 1787955003 | 19.44° C | 71% | 0 hPa | - | - | - | - |
| 1787954403 | 18.89° C | 72% | 0 hPa | - | - | - | - |
| 1787953803 | 19.44° C | 71% | 0 hPa | - | - | - | - |
| 1787953203 | 18.89° C | 77% | 0 hPa | - | - | - | - |
| 1787952609 | 18.89° C | 70% | 0 hPa | - | - | - | - |
| 1787952003 | 19.44° C | 65% | 0 hPa | - | - | - | - |
| 1787951403 | 19.44° C | 70% | 0 hPa | - | - | - | - |
| 1787950803 | 20° C | 69% | 0 hPa | - | - | - | - |
| 1787950203 | 19.44° C | 65% | 0 hPa | - | - | - | - |
| 1787949603 | 19.44° C | 68% | 0 hPa | - | - | - | - |
| 1787949004 | 19.44° C | 66% | 0 hPa | - | - | - | - |
| 1787948403 | 19.44° C | 67% | 0 hPa | - | - | - | - |
| 1787947803 | 18.89° C | 68% | 0 hPa | - | - | - | - |
| 1787947213 | 18.89° C | 70% | 0 hPa | - | - | - | - |
| 1787946603 | 20° C | 70% | 0 hPa | - | - | - | - |
| 1787946003 | 18.89° C | 76% | 0 hPa | - | - | - | - |
| 1787945403 | 18.89° C | 77% | 0 hPa | - | - | - | - |
| 1787944803 | 18.33° C | 78% | 0 hPa | - | - | - | - |
| 1787944203 | 18.33° C | 81% | 0 hPa | - | - | - | - |
| 1787943604 | 18.33° C | 81% | 0 hPa | - | - | - | - |
| 1787943003 | 18.89° C | 80% | 0 hPa | - | - | - | - |
| 1787942403 | 18.33° C | 79% | 0 hPa | - | - | - | - |
| 1787941802 | 18.33° C | 82% | 0 hPa | - | - | - | - |
* Rain since midnight (hover to see other rain measurements)
** Current wind speed in m/s (hover to see current wind gust speed)